Time,TemperatureF,DewpointF,PressureIn,WindDirection,WindDirectionDegrees,WindSpeedMPH,WindSpeedGustMPH,Humidity,HourlyPrecipIn,Conditions,Clouds,dailyrainin,SoftwareType,DateUTC
2013-08-05 00:02:00,72.0,68.0,29.63,North,0,8.0,-999.0,88,-99.99,,,-99.99,,2013-08-05 05:02:00,
2013-08-05 00:12:00,72.0,68.0,29.63,North,0,7.0,-999.0,88,-99.99,,,-99.99,,2013-08-05 05:12:00,
2013-08-05 00:22:00,70.0,66.0,29.62,NE,45,6.0,-999.0,88,-99.99,,,-99.99,,2013-08-05 05:22:00,
2013-08-05 00:32:00,70.0,66.0,29.62,North,0,6.0,-999.0,88,-99.99,,,-99.99,,2013-08-05 05:32:00,
2013-08-05 00:43:00,70.0,66.0,29.61,North,0,8.0,-999.0,88,-99.99,,,-99.99,,2013-08-05 05:43:00,
2013-08-05 00:53:00,72.0,68.0,29.62,NE,45,7.0,-999.0,88,-99.99,,,-99.99,,2013-08-05 05:53:00,
2013-08-05 01:02:00,72.0,68.0,29.61,NNE,24,9.0,-999.0,88,-99.99,,,-99.99,,2013-08-05 06:02:00,
2013-08-05 01:12:00,72.0,68.0,29.61,NNE,24,10.0,-999.0,88,-99.99,,,-99.99,,2013-08-05 06:12:00,
2013-08-05 01:22:00,72.0,68.0,29.61,NNE,25,7.0,-999.0,88,-99.99,,,-99.99,,2013-08-05 06:22:00,
2013-08-05 01:32:00,72.0,68.0,29.61,NE,45,8.0,-999.0,88,-99.99,,,-99.99,,2013-08-05 06:32:00,
2013-08-05 01:42:00,72.0,68.0,29.61,NE,45,8.0,-999.0,88,-99.99,,,-99.99,,2013-08-05 06:42:00,
2013-08-05 01:52:00,70.0,68.0,29.59,NE,45,10.0,-999.0,94,-99.99,,,-99.99,,2013-08-05 06:52:00,
2013-08-05 02:02:00,70.0,68.0,29.59,NNE,25,8.0,-999.0,94,-99.99,,,-99.99,,2013-08-05 07:02:00,
2013-08-05 02:12:00,70.0,68.0,29.59,NE,45,12.0,-999.0,94,-99.99,,,-99.99,,2013-08-05 07:12:00,
2013-08-05 02:22:00,70.0,68.0,29.59,ENE,70,12.0,-999.0,94,-99.99,,,-99.99,,2013-08-05 07:22:00,
2013-08-05 02:32:00,70.0,70.0,29.59,ENE,69,9.0,-999.0,100,-99.99,,,-99.99,,2013-08-05 07:32:00,
2013-08-05 02:43:00,70.0,68.0,29.59,ENE,69,10.0,-999.0,94,-99.99,,,-99.99,,2013-08-05 07:43:00,
2013-08-05 02:53:00,70.0,70.0,29.59,NE,45,10.0,-999.0,100,-99.99,,,-99.99,,2013-08-05 07:53:00,
2013-08-05 03:02:00,70.0,68.0,29.59,NE,45,5.0,-999.0,94,-99.99,,,-99.99,,2013-08-05 08:02:00,
2013-08-05 03:12:00,70.0,70.0,29.58,NNE,25,7.0,-999.0,100,-99.99,,,-99.99,,2013-08-05 08:12:00,
2013-08-05 03:22:00,70.0,68.0,29.58,NE,45,6.0,-999.0,94,-99.99,,,-99.99,,2013-08-05 08:22:00,
2013-08-05 03:34:00,70.0,68.0,29.57,NE,45,7.0,-999.0,94,-99.99,,,-99.99,,2013-08-05 08:34:00,
2013-08-05 03:53:00,68.0,68.0,29.57,NNE,25,3.0,-999.0,100,-99.99,,,-99.99,,2013-08-05 08:53:00,
2013-08-05 04:06:00,68.0,68.0,29.57,NE,45,5.0,-999.0,100,-99.99,,,-99.99,,2013-08-05 09:06:00,
2013-08-05 04:15:00,70.0,68.0,29.57,ENE,70,6.0,-999.0,94,-99.99,,,-99.99,,2013-08-05 09:15:00,
2013-08-05 04:36:00,70.0,68.0,29.57,NNE,24,5.0,-999.0,94,-99.99,,,-99.99,,2013-08-05 09:36:00,
2013-08-05 04:46:00,70.0,68.0,29.56,NNE,25,3.0,-999.0,94,-99.99,,,-99.99,,2013-08-05 09:46:00,
2013-08-05 05:06:00,68.0,68.0,29.56,North,0,0.0,-999.0,100,-99.99,,,-99.99,,2013-08-05 10:06:00,
2013-08-05 05:13:00,68.0,68.0,29.56,North,0,0.0,-999.0,100,-99.99,,,-99.99,,2013-08-05 10:13:00,
2013-08-05 05:24:00,68.0,68.0,29.56,NNE,25,3.0,-999.0,100,-99.99,,,-99.99,,2013-08-05 10:24:00,
2013-08-05 05:32:00,66.0,66.0,29.56,North,0,0.0,-999.0,100,-99.99,,,-99.99,,2013-08-05 10:32:00,
2013-08-05 05:45:00,66.0,66.0,29.56,North,0,0.0,-999.0,100,-99.99,,,-99.99,,2013-08-05 10:45:00,
2013-08-05 05:52:00,66.0,66.0,29.56,North,0,0.0,-999.0,100,-99.99,,,-99.99,,2013-08-05 10:52:00,
2013-08-05 06:14:00,66.0,66.0,29.56,North,0,0.0,-999.0,100,-99.99,,,-99.99,,2013-08-05 11:14:00,
2013-08-05 06:24:00,66.0,66.0,29.56,North,0,0.0,-999.0,100,-99.99,,,-99.99,,2013-08-05 11:24:00,
2013-08-05 06:34:00,66.0,66.0,29.56,North,0,0.0,-999.0,100,-99.99,,,-99.99,,2013-08-05 11:34:00,
2013-08-05 06:47:00,68.0,68.0,29.56,North,0,0.0,-999.0,100,-99.99,,,-99.99,,2013-08-05 11:47:00,
2013-08-05 06:54:00,68.0,68.0,29.56,North,0,0.0,-999.0,100,-99.99,,,-99.99,,2013-08-05 11:54:00,
2013-08-05 07:06:00,68.0,68.0,29.56,North,0,0.0,-999.0,100,-99.99,,,-99.99,,2013-08-05 12:06:00,
2013-08-05 07:14:00,68.0,68.0,29.56,North,0,0.0,-999.0,100,-99.99,,,-99.99,,2013-08-05 12:14:00,
2013-08-05 07:33:00,68.0,68.0,29.59,North,0,0.0,-999.0,100,-99.99,,,-99.99,,2013-08-05 12:33:00,
2013-08-05 07:46:00,68.0,68.0,29.59,North,0,0.0,-999.0,100,-99.99,,,-99.99,,2013-08-05 12:46:00,
2013-08-05 08:02:00,68.0,68.0,29.57,North,0,0.0,-999.0,100,-99.99,,,-99.99,,2013-08-05 13:02:00,
2013-08-05 08:13:00,68.0,68.0,29.56,North,0,0.0,-999.0,100,-99.99,,,-99.99,,2013-08-05 13:13:00,
2013-08-05 08:25:00,68.0,68.0,29.57,North,0,0.0,-999.0,100,-99.99,,,-99.99,,2013-08-05 13:25:00,
2013-08-05 08:35:00,68.0,68.0,29.57,North,0,0.0,-999.0,100,-99.99,,,-99.99,,2013-08-05 13:35:00,
2013-08-05 08:42:00,70.0,68.0,29.58,ESE,115,8.0,-999.0,94,-99.99,,,-99.99,,2013-08-05 13:42:00,
2013-08-05 08:53:00,70.0,68.0,29.58,East,90,3.0,-999.0,94,-99.99,,,-99.99,,2013-08-05 13:53:00,
2013-08-05 09:15:00,70.0,68.0,29.58,North,0,0.0,-999.0,94,-99.99,,,-99.99,,2013-08-05 14:15:00,
2013-08-05 09:24:00,70.0,68.0,29.58,North,0,0.0,-999.0,94,-99.99,,,-99.99,,2013-08-05 14:24:00,
2013-08-05 09:35:00,70.0,68.0,29.58,North,0,0.0,-999.0,94,-99.99,,,-99.99,,2013-08-05 14:35:00,
2013-08-05 09:44:00,70.0,70.0,29.56,North,0,0.0,-999.0,100,-99.99,,,-99.99,,2013-08-05 14:44:00,
2013-08-05 09:53:00,70.0,70.0,29.55,North,0,0.0,-999.0,100,-99.99,,,-99.99,,2013-08-05 14:53:00,
2013-08-05 10:05:00,72.0,72.0,29.54,North,0,0.0,-999.0,100,-99.99,,,-99.99,,2013-08-05 15:05:00,
2013-08-05 10:13:00,72.0,72.0,29.54,North,0,0.0,-999.0,100,-99.99,,,-99.99,,2013-08-05 15:13:00,
2013-08-05 10:24:00,72.0,72.0,29.54,North,0,0.0,-999.0,100,-99.99,,,-99.99,,2013-08-05 15:24:00,
2013-08-05 10:34:00,72.0,72.0,29.54,SW,225,6.0,-999.0,100,-99.99,,,-99.99,,2013-08-05 15:34:00,
2013-08-05 10:44:00,73.0,72.0,29.54,North,0,0.0,-999.0,94,-99.99,,,-99.99,,2013-08-05 15:44:00,
2013-08-05 10:54:00,73.0,73.0,29.54,North,0,8.0,-999.0,100,-99.99,,,-99.99,,2013-08-05 15:54:00,
2013-08-05 11:05:00,73.0,73.0,29.55,North,0,3.0,-999.0,100,-99.99,,,-99.99,,2013-08-05 16:05:00,
2013-08-05 11:44:00,73.0,72.0,29.56,SSW,205,7.0,-999.0,94,-99.99,,,-99.99,,2013-08-05 16:44:00,
2013-08-05 11:54:00,75.0,72.0,29.55,SW,225,3.0,-999.0,88,-99.99,,,-99.99,,2013-08-05 16:54:00,
2013-08-05 12:04:00,75.0,72.0,29.55,SSW,204,5.0,-999.0,88,-99.99,,,-99.99,,2013-08-05 17:04:00,
2013-08-05 12:15:00,75.0,72.0,29.55,SW,225,3.0,-999.0,88,-99.99,,,-99.99,,2013-08-05 17:15:00,
2013-08-05 12:22:00,75.0,72.0,29.55,SSW,204,5.0,-999.0,88,-99.99,,,-99.99,,2013-08-05 17:22:00,
2013-08-05 12:34:00,75.0,72.0,29.56,North,0,7.0,-999.0,88,-99.99,,,-99.99,,2013-08-05 17:34:00,
2013-08-05 12:45:00,77.0,72.0,29.57,North,0,0.0,-999.0,83,-99.99,,,-99.99,,2013-08-05 17:45:00,
2013-08-05 13:06:00,79.0,72.0,29.56,North,0,0.0,-999.0,78,-99.99,,,-99.99,,2013-08-05 18:06:00,
2013-08-05 13:13:00,79.0,70.0,29.56,SSW,205,3.0,-999.0,73,-99.99,,,-99.99,,2013-08-05 18:13:00,
2013-08-05 13:44:00,81.0,70.0,29.55,NE,45,3.0,-999.0,69,-99.99,,,-99.99,,2013-08-05 18:44:00,
2013-08-05 13:53:00,81.0,70.0,29.55,North,0,0.0,-999.0,69,-99.99,,,-99.99,,2013-08-05 18:53:00,
2013-08-05 14:05:00,81.0,70.0,29.55,SE,135,2.0,-999.0,69,-99.99,,,-99.99,,2013-08-05 19:05:00,
2013-08-05 14:14:00,81.0,70.0,29.56,SSW,205,7.0,-999.0,69,-99.99,,,-99.99,,2013-08-05 19:14:00,
2013-08-05 14:24:00,81.0,70.0,29.56,SE,135,7.0,-999.0,69,-99.99,,,-99.99,,2013-08-05 19:24:00,
2013-08-05 14:34:00,81.0,70.0,29.56,North,0,0.0,-999.0,69,-99.99,,,-99.99,,2013-08-05 19:34:00,
2013-08-05 14:48:00,81.0,68.0,29.56,SE,135,5.0,-999.0,65,-99.99,,,-99.99,,2013-08-05 19:48:00,
2013-08-05 14:54:00,81.0,68.0,29.56,North,0,7.0,-999.0,65,-99.99,,,-99.99,,2013-08-05 19:54:00,
2013-08-05 15:15:00,81.0,66.0,29.56,SSW,204,6.0,-999.0,61,-99.99,,,-99.99,,2013-08-05 20:15:00,
2013-08-05 15:47:00,82.0,63.0,29.55,North,0,5.0,-999.0,51,-99.99,,,-99.99,,2013-08-05 20:47:00,
2013-08-05 15:54:00,82.0,63.0,29.55,ESE,114,6.0,-999.0,51,-99.99,,,-99.99,,2013-08-05 20:54:00,
2013-08-05 16:05:00,82.0,63.0,29.54,North,0,10.0,-999.0,51,-99.99,,,-99.99,,2013-08-05 21:05:00,
2013-08-05 16:15:00,82.0,63.0,29.54,SSE,155,9.0,-999.0,51,-99.99,,,-99.99,,2013-08-05 21:15:00,
2013-08-05 16:33:00,82.0,63.0,29.54,SSE,155,5.0,-999.0,51,-99.99,,,-99.99,,2013-08-05 21:33:00,
2013-08-05 16:45:00,82.0,63.0,29.54,SE,135,6.0,-999.0,51,-99.99,,,-99.99,,2013-08-05 21:45:00,
2013-08-05 16:53:00,82.0,63.0,29.54,North,0,0.0,-999.0,51,-99.99,,,-99.99,,2013-08-05 21:53:00,
2013-08-05 17:24:00,82.0,63.0,29.54,ESE,115,8.0,-999.0,51,-99.99,,,-99.99,,2013-08-05 22:24:00,
2013-08-05 17:43:00,82.0,63.0,29.53,SE,135,8.0,-999.0,51,-99.99,,,-99.99,,2013-08-05 22:43:00,
2013-08-05 17:53:00,82.0,63.0,29.53,ESE,115,8.0,-999.0,51,-99.99,,,-99.99,,2013-08-05 22:53:00,
2013-08-05 18:24:00,82.0,64.0,29.53,SE,135,8.0,-999.0,54,-99.99,,,-99.99,,2013-08-05 23:24:00,
2013-08-05 18:33:00,82.0,64.0,29.53,SE,135,6.0,-999.0,54,-99.99,,,-99.99,,2013-08-05 23:33:00,
2013-08-05 18:45:00,82.0,64.0,29.52,SSE,155,6.0,-999.0,54,-99.99,,,-99.99,,2013-08-05 23:45:00,
2013-08-05 18:55:00,82.0,64.0,29.52,SSE,155,6.0,-999.0,54,-99.99,,,-99.99,,2013-08-05 23:55:00,
2013-08-05 19:24:00,81.0,63.0,29.52,SSE,154,7.0,-999.0,54,-99.99,,,-99.99,,2013-08-06 00:24:00,
2013-08-05 19:34:00,81.0,64.0,29.52,North,0,9.0,-999.0,57,-99.99,,,-99.99,,2013-08-06 00:34:00,
2013-08-05 19:45:00,81.0,63.0,29.52,SSE,154,7.0,-999.0,54,-99.99,,,-99.99,,2013-08-06 00:45:00,
2013-08-05 19:54:00,81.0,64.0,29.52,North,0,5.0,-999.0,57,-99.99,,,-99.99,,2013-08-06 00:54:00,
2013-08-05 20:25:00,79.0,64.0,29.52,SSE,154,3.0,-999.0,61,-99.99,,,-99.99,,2013-08-06 01:25:00,
2013-08-05 20:36:00,79.0,64.0,29.52,SE,135,3.0,-999.0,61,-99.99,,,-99.99,,2013-08-06 01:36:00,
2013-08-05 20:46:00,77.0,64.0,29.52,North,0,0.0,-999.0,65,-99.99,,,-99.99,,2013-08-06 01:46:00,
2013-08-05 20:54:00,75.0,64.0,29.52,North,0,0.0,-999.0,69,-99.99,,,-99.99,,2013-08-06 01:54:00,
2013-08-05 21:25:00,73.0,66.0,29.52,North,0,0.0,-999.0,78,-99.99,,,-99.99,,2013-08-06 02:25:00,
2013-08-05 21:32:00,73.0,66.0,29.53,North,0,0.0,-999.0,78,-99.99,,,-99.99,,2013-08-06 02:32:00,
2013-08-05 21:44:00,73.0,66.0,29.53,North,0,0.0,-999.0,78,-99.99,,,-99.99,,2013-08-06 02:44:00,
2013-08-05 21:52:00,72.0,66.0,29.53,North,0,0.0,-999.0,83,-99.99,,,-99.99,,2013-08-06 02:52:00,
2013-08-05 22:35:00,68.0,64.0,29.54,North,0,0.0,-999.0,88,-99.99,,,-99.99,,2013-08-06 03:35:00,
2013-08-05 22:52:00,66.0,64.0,29.55,North,0,0.0,-999.0,93,-99.99,,,-99.99,,2013-08-06 03:52:00,
2013-08-05 23:22:00,66.0,64.0,29.55,North,0,0.0,-999.0,93,-99.99,,,-99.99,,2013-08-06 04:22:00,
2013-08-05 23:33:00,64.0,64.0,29.55,North,0,0.0,-999.0,100,-99.99,,,-99.99,,2013-08-06 04:33:00,
2013-08-05 23:44:00,64.0,63.0,29.54,North,0,0.0,-999.0,93,-99.99,,,-99.99,,2013-08-06 04:44:00,
2013-08-05 23:53:00,64.0,63.0,29.54,North,0,0.0,-999.0,93,-99.99,,,-99.99,,2013-08-06 04:53:00,